Year,Month,Day,Hour,Minute,Value (Times are PST for temperature in C)
2012,07,12,00,00,15.60
2012,07,12,00,01,15.60
2012,07,12,00,02,15.60
2012,07,12,00,03,15.50
2012,07,12,00,04,15.50
2012,07,12,00,05,15.50
2012,07,12,00,06,15.40
2012,07,12,00,07,15.40
2012,07,12,00,08,15.40
2012,07,12,00,09,15.30
2012,07,12,00,10,15.30
2012,07,12,00,11,15.20
2012,07,12,00,12,15.20
2012,07,12,00,13,15.20
2012,07,12,00,14,15.10
2012,07,12,00,15,15.10
2012,07,12,00,16,15.00
2012,07,12,00,17,15.00
2012,07,12,00,18,14.90
2012,07,12,00,19,14.90
2012,07,12,00,20,14.80
2012,07,12,00,21,14.80
2012,07,12,00,22,14.80
2012,07,12,00,23,14.80
2012,07,12,00,24,14.80
2012,07,12,00,25,14.80
2012,07,12,00,26,14.70
2012,07,12,00,27,14.70
2012,07,12,00,28,14.70
2012,07,12,00,29,14.70
2012,07,12,00,30,14.70
2012,07,12,00,31,14.70
2012,07,12,00,32,14.60
2012,07,12,00,33,14.60
2012,07,12,00,34,14.60
2012,07,12,00,35,14.60
2012,07,12,00,36,14.60
2012,07,12,00,37,14.60
2012,07,12,00,38,14.60
2012,07,12,00,39,14.60
2012,07,12,00,40,14.60
2012,07,12,00,41,14.60
2012,07,12,00,42,14.50
2012,07,12,00,43,14.50
2012,07,12,00,44,14.50
2012,07,12,00,45,14.50
2012,07,12,00,46,14.40
2012,07,12,00,47,14.40
2012,07,12,00,48,14.40
2012,07,12,00,49,14.40
2012,07,12,00,50,14.40
2012,07,12,00,51,14.40
2012,07,12,00,52,14.30
2012,07,12,00,53,14.30
2012,07,12,00,54,14.30
2012,07,12,00,55,14.30
2012,07,12,00,56,14.30
2012,07,12,00,57,14.30
2012,07,12,00,58,14.30
2012,07,12,00,59,14.30
2012,07,12,01,00,14.30
2012,07,12,01,01,14.30
2012,07,12,01,02,14.30
2012,07,12,01,03,14.20
2012,07,12,01,04,14.20
2012,07,12,01,05,14.20
2012,07,12,01,06,14.20
2012,07,12,01,07,14.20
2012,07,12,01,08,14.10
2012,07,12,01,09,14.10
2012,07,12,01,10,14.10
2012,07,12,01,11,14.10
2012,07,12,01,12,14.10
2012,07,12,01,13,14.10
2012,07,12,01,14,14.10
2012,07,12,01,15,14.00
2012,07,12,01,16,14.00
2012,07,12,01,17,14.00
2012,07,12,01,18,14.00
2012,07,12,01,19,14.00
2012,07,12,01,20,13.90
2012,07,12,01,21,13.90
2012,07,12,01,22,13.90
2012,07,12,01,23,13.90
2012,07,12,01,24,13.80
2012,07,12,01,25,13.80
2012,07,12,01,26,13.80
2012,07,12,01,27,13.80
2012,07,12,01,28,13.80
2012,07,12,01,29,13.80
2012,07,12,01,30,13.80
2012,07,12,01,31,13.80
2012,07,12,01,32,13.80
2012,07,12,01,33,13.80
2012,07,12,01,34,13.80
2012,07,12,01,35,13.80
2012,07,12,01,36,13.80
2012,07,12,01,37,13.80
2012,07,12,01,38,13.80
2012,07,12,01,39,13.80
2012,07,12,01,40,13.80
2012,07,12,01,41,13.80
2012,07,12,01,42,13.80
2012,07,12,01,43,13.80
2012,07,12,01,44,13.70
2012,07,12,01,45,13.70
2012,07,12,01,46,13.70
2012,07,12,01,47,13.70
2012,07,12,01,48,13.70
2012,07,12,01,49,13.70
2012,07,12,01,50,13.70
2012,07,12,01,51,13.70
2012,07,12,01,52,13.70
2012,07,12,01,53,13.70
2012,07,12,01,54,13.70
2012,07,12,01,55,13.70
2012,07,12,01,56,13.70
2012,07,12,01,57,13.70
2012,07,12,01,58,13.70
2012,07,12,01,59,13.70
2012,07,12,02,00,13.70
2012,07,12,02,01,13.70
2012,07,12,02,02,13.70
2012,07,12,02,03,13.60
2012,07,12,02,04,13.60
2012,07,12,02,05,13.60
2012,07,12,02,06,13.60
2012,07,12,02,07,13.60
2012,07,12,02,08,13.60
2012,07,12,02,09,13.60
2012,07,12,02,10,13.60
2012,07,12,02,11,13.60
2012,07,12,02,12,13.60
2012,07,12,02,13,13.60
2012,07,12,02,14,13.60
2012,07,12,02,15,13.60
2012,07,12,02,16,13.60
2012,07,12,02,17,13.60
2012,07,12,02,18,13.50
2012,07,12,02,19,13.60
2012,07,12,02,20,13.50
2012,07,12,02,21,13.50
2012,07,12,02,22,13.50
2012,07,12,02,23,13.50
2012,07,12,02,24,13.50
2012,07,12,02,25,13.50
2012,07,12,02,26,13.50
2012,07,12,02,27,13.40
2012,07,12,02,28,13.40
2012,07,12,02,29,13.40
2012,07,12,02,30,13.40
2012,07,12,02,31,13.40
2012,07,12,02,32,13.40
2012,07,12,02,33,13.40
2012,07,12,02,34,13.40
2012,07,12,02,35,13.40
2012,07,12,02,36,13.40
2012,07,12,02,37,13.40
2012,07,12,02,38,13.40
2012,07,12,02,39,13.40
2012,07,12,02,40,13.40
2012,07,12,02,41,13.40
2012,07,12,02,42,13.40
2012,07,12,02,43,13.40
2012,07,12,02,44,13.40
2012,07,12,02,45,13.40
2012,07,12,02,46,13.40
2012,07,12,02,47,13.40
2012,07,12,02,48,13.40
2012,07,12,02,49,13.40
2012,07,12,02,50,13.40
2012,07,12,02,51,13.40
2012,07,12,02,52,13.40
2012,07,12,02,53,13.30
2012,07,12,02,54,13.30
2012,07,12,02,55,13.30
2012,07,12,02,56,13.30
2012,07,12,02,57,13.30
2012,07,12,02,58,13.30
2012,07,12,02,59,13.30
2012,07,12,03,00,13.30
2012,07,12,03,01,13.30
2012,07,12,03,02,13.30
2012,07,12,03,03,13.30
2012,07,12,03,04,13.20
2012,07,12,03,05,13.30
2012,07,12,03,06,13.20
2012,07,12,03,07,13.20
2012,07,12,03,08,13.20
2012,07,12,03,09,13.20
2012,07,12,03,10,13.20
2012,07,12,03,11,13.20
2012,07,12,03,12,13.20
2012,07,12,03,13,13.20
2012,07,12,03,14,13.20
2012,07,12,03,15,13.20
2012,07,12,03,16,13.10
2012,07,12,03,17,13.10
2012,07,12,03,18,13.10
2012,07,12,03,19,13.10
2012,07,12,03,20,13.10
2012,07,12,03,21,13.10
2012,07,12,03,22,13.10
2012,07,12,03,23,13.10
2012,07,12,03,24,13.10
2012,07,12,03,25,13.10
2012,07,12,03,26,13.00
2012,07,12,03,27,13.00
2012,07,12,03,28,13.10
2012,07,12,03,29,13.10
2012,07,12,03,30,13.00
2012,07,12,03,31,13.00
2012,07,12,03,32,13.00
2012,07,12,03,33,13.00
2012,07,12,03,34,13.00
2012,07,12,03,35,12.90
2012,07,12,03,36,12.90
2012,07,12,03,37,12.90
2012,07,12,03,38,12.90
2012,07,12,03,39,12.90
2012,07,12,03,40,12.90
2012,07,12,03,41,12.90
2012,07,12,03,42,12.90
2012,07,12,03,43,12.90
2012,07,12,03,44,12.80
2012,07,12,03,45,12.80
2012,07,12,03,46,12.80
2012,07,12,03,47,12.80
2012,07,12,03,48,12.80
2012,07,12,03,49,12.80
2012,07,12,03,50,12.70
2012,07,12,03,51,12.70
2012,07,12,03,52,12.70
2012,07,12,03,53,12.70
2012,07,12,03,54,12.70
2012,07,12,03,55,12.70
2012,07,12,03,56,12.70
2012,07,12,03,57,12.70
2012,07,12,03,58,12.60
2012,07,12,03,59,12.60
2012,07,12,04,00,12.60
2012,07,12,04,01,12.60
2012,07,12,04,02,12.60
2012,07,12,04,03,12.60
2012,07,12,04,04,12.50
2012,07,12,04,05,12.50
2012,07,12,04,06,12.50
2012,07,12,04,07,12.50
2012,07,12,04,08,12.50
2012,07,12,04,09,12.50
2012,07,12,04,10,12.50
2012,07,12,04,11,12.50
2012,07,12,04,12,12.50
2012,07,12,04,13,12.40
2012,07,12,04,14,12.40
2012,07,12,04,15,12.40
2012,07,12,04,16,12.40
2012,07,12,04,17,12.40
2012,07,12,04,18,12.40
2012,07,12,04,19,12.40
2012,07,12,04,20,12.40
2012,07,12,04,21,12.40
2012,07,12,04,22,12.40
2012,07,12,04,23,12.30
2012,07,12,04,24,12.30
2012,07,12,04,25,12.30
2012,07,12,04,26,12.30
2012,07,12,04,27,12.30
2012,07,12,04,28,12.30
2012,07,12,04,29,12.30
2012,07,12,04,30,12.30
2012,07,12,04,31,12.30
2012,07,12,04,32,12.30
2012,07,12,04,33,12.30
2012,07,12,04,34,12.30
2012,07,12,04,35,12.30
2012,07,12,04,36,12.30
2012,07,12,04,37,12.30
2012,07,12,04,38,12.30
2012,07,12,04,39,12.30
2012,07,12,04,40,12.30
2012,07,12,04,41,12.30
2012,07,12,04,42,12.30
2012,07,12,04,43,12.30
2012,07,12,04,44,12.30
2012,07,12,04,45,12.30
2012,07,12,04,46,12.20
2012,07,12,04,47,12.20
2012,07,12,04,48,12.20
2012,07,12,04,49,12.20
2012,07,12,04,50,12.20
2012,07,12,04,51,12.20
2012,07,12,04,52,12.20
2012,07,12,04,53,12.20
2012,07,12,04,54,12.20
2012,07,12,04,55,12.20
2012,07,12,04,56,12.20
2012,07,12,04,57,12.20
2012,07,12,04,58,12.20
2012,07,12,04,59,12.20
2012,07,12,05,00,12.20
2012,07,12,05,01,12.20
2012,07,12,05,02,12.20
2012,07,12,05,03,12.20
2012,07,12,05,04,12.10
2012,07,12,05,05,12.10
2012,07,12,05,06,12.10
2012,07,12,05,07,12.10
2012,07,12,05,08,12.10
2012,07,12,05,09,12.10
2012,07,12,05,10,12.10
2012,07,12,05,11,12.00
2012,07,12,05,12,12.00
2012,07,12,05,13,12.00
2012,07,12,05,14,12.00
2012,07,12,05,15,12.00
2012,07,12,05,16,12.00
2012,07,12,05,17,12.00
2012,07,12,05,18,12.00
2012,07,12,05,19,11.90
2012,07,12,05,20,11.90
2012,07,12,05,21,11.90
2012,07,12,05,22,11.90
2012,07,12,05,23,11.90
2012,07,12,05,24,11.90
2012,07,12,05,25,11.90
2012,07,12,05,26,11.90
2012,07,12,05,27,11.90
2012,07,12,05,28,11.90
2012,07,12,05,29,11.90
2012,07,12,05,30,11.90
2012,07,12,05,31,11.80
2012,07,12,05,32,11.80
2012,07,12,05,33,11.80
2012,07,12,05,34,11.80
2012,07,12,05,35,11.80
2012,07,12,05,36,11.80
2012,07,12,05,37,11.80
2012,07,12,05,38,11.80
2012,07,12,05,39,11.80
2012,07,12,05,40,11.80
2012,07,12,05,41,11.80
2012,07,12,05,42,11.80
2012,07,12,05,43,11.80
2012,07,12,05,44,11.80
2012,07,12,05,45,11.80
2012,07,12,05,46,11.80
2012,07,12,05,47,11.80
2012,07,12,05,48,11.80
2012,07,12,05,49,11.80
2012,07,12,05,50,11.80
2012,07,12,05,51,11.80
2012,07,12,05,52,11.80
2012,07,12,05,53,11.80
2012,07,12,05,54,11.80
2012,07,12,05,55,11.90
2012,07,12,05,56,11.90
2012,07,12,05,57,11.90
2012,07,12,05,58,11.90
2012,07,12,05,59,11.90
2012,07,12,06,00,11.90
2012,07,12,06,01,11.90
2012,07,12,06,02,11.90
2012,07,12,06,03,11.90
2012,07,12,06,04,12.00
2012,07,12,06,05,12.00
2012,07,12,06,06,12.00
2012,07,12,06,07,12.00
2012,07,12,06,08,12.00
2012,07,12,06,09,12.10
2012,07,12,06,10,12.10
2012,07,12,06,11,12.10
2012,07,12,06,12,12.10
2012,07,12,06,13,12.20
2012,07,12,06,14,12.20
2012,07,12,06,15,12.20
2012,07,12,06,16,12.30
2012,07,12,06,17,12.30
2012,07,12,06,18,12.40
2012,07,12,06,19,12.40
2012,07,12,06,20,12.40
2012,07,12,06,21,12.50
2012,07,12,06,22,12.50
2012,07,12,06,23,12.50
2012,07,12,06,24,12.50
2012,07,12,06,25,12.60
2012,07,12,06,26,12.70
2012,07,12,06,27,12.70
2012,07,12,06,28,12.80
2012,07,12,06,29,12.90
2012,07,12,06,30,13.10
2012,07,12,06,31,13.20
2012,07,12,06,32,13.20
2012,07,12,06,33,13.30
2012,07,12,06,34,13.30
2012,07,12,06,35,13.40
2012,07,12,06,36,13.40
2012,07,12,06,37,13.40
2012,07,12,06,38,13.50
2012,07,12,06,39,13.50
2012,07,12,06,40,13.60
2012,07,12,06,41,13.70
2012,07,12,06,42,13.70
2012,07,12,06,43,13.80
2012,07,12,06,44,13.90
2012,07,12,06,45,14.00
2012,07,12,06,46,14.00
2012,07,12,06,47,14.10
2012,07,12,06,48,14.20
2012,07,12,06,49,14.30
2012,07,12,06,50,14.40
2012,07,12,06,51,14.40
2012,07,12,06,52,14.50
2012,07,12,06,53,14.60
2012,07,12,06,54,14.70
2012,07,12,06,55,14.70
2012,07,12,06,56,14.80
2012,07,12,06,57,14.90
2012,07,12,06,58,15.00
2012,07,12,06,59,15.10
2012,07,12,07,00,15.20
2012,07,12,07,01,15.20
2012,07,12,07,02,15.30
2012,07,12,07,03,15.40
2012,07,12,07,04,15.50
2012,07,12,07,05,15.60
2012,07,12,07,06,15.70
2012,07,12,07,07,15.80
2012,07,12,07,08,15.90
2012,07,12,07,09,16.00
2012,07,12,07,10,16.10
2012,07,12,07,11,16.30
2012,07,12,07,12,16.40
2012,07,12,07,13,16.50
2012,07,12,07,14,16.60
2012,07,12,07,15,16.80
2012,07,12,07,16,16.80
2012,07,12,07,17,17.00
2012,07,12,07,18,17.10
2012,07,12,07,19,17.10
2012,07,12,07,20,17.20
2012,07,12,07,21,17.30
2012,07,12,07,22,17.30
2012,07,12,07,23,17.30
2012,07,12,07,24,17.30
2012,07,12,07,25,17.30
2012,07,12,07,26,17.30
2012,07,12,07,27,17.20
2012,07,12,07,28,17.20
2012,07,12,07,29,17.20
2012,07,12,07,30,17.20
2012,07,12,07,31,17.20
2012,07,12,07,32,17.20
2012,07,12,07,33,17.20
2012,07,12,07,34,17.20
2012,07,12,07,35,17.30
2012,07,12,07,36,17.30
2012,07,12,07,37,17.40
2012,07,12,07,38,17.50
2012,07,12,07,39,17.50
2012,07,12,07,40,17.60
2012,07,12,07,41,17.60
2012,07,12,07,42,17.70
2012,07,12,07,43,17.70
2012,07,12,07,44,17.70
2012,07,12,07,45,17.70
2012,07,12,07,46,17.70
2012,07,12,07,47,17.70
2012,07,12,07,48,17.70
2012,07,12,07,49,17.70
2012,07,12,07,50,17.70
2012,07,12,07,51,17.70
2012,07,12,07,52,17.70
2012,07,12,07,53,17.60
2012,07,12,07,54,17.60
2012,07,12,07,55,17.60
2012,07,12,07,56,17.60
2012,07,12,07,57,17.60
2012,07,12,07,58,17.60
2012,07,12,07,59,17.60
2012,07,12,08,00,17.60
2012,07,12,08,01,17.60
2012,07,12,08,02,17.60
2012,07,12,08,03,17.60
2012,07,12,08,04,17.70
2012,07,12,08,05,17.70
2012,07,12,08,06,17.80
2012,07,12,08,07,17.90
2012,07,12,08,08,17.90
2012,07,12,08,09,18.00
2012,07,12,08,10,18.00
2012,07,12,08,11,18.00
2012,07,12,08,12,18.10
2012,07,12,08,13,18.20
2012,07,12,08,14,18.30
2012,07,12,08,15,18.40
2012,07,12,08,16,18.40
2012,07,12,08,17,18.50
2012,07,12,08,18,18.70
2012,07,12,08,19,18.80
2012,07,12,08,20,18.80
2012,07,12,08,21,18.90
2012,07,12,08,22,18.90
2012,07,12,08,23,19.00
2012,07,12,08,24,19.10
2012,07,12,08,25,19.20
2012,07,12,08,26,19.20
2012,07,12,08,27,19.20
2012,07,12,08,28,19.10
2012,07,12,08,29,19.00
2012,07,12,08,30,19.00
2012,07,12,08,31,18.90
2012,07,12,08,32,18.90
2012,07,12,08,33,18.90
2012,07,12,08,34,18.90
2012,07,12,08,35,19.00
2012,07,12,08,36,19.10
2012,07,12,08,37,19.20
2012,07,12,08,38,19.30
2012,07,12,08,39,19.40
2012,07,12,08,40,19.50
2012,07,12,08,41,19.50
2012,07,12,08,42,19.50
2012,07,12,08,43,19.40
2012,07,12,08,44,19.40
2012,07,12,08,45,19.40
2012,07,12,08,46,19.50
2012,07,12,08,47,19.50
2012,07,12,08,48,19.60
2012,07,12,08,49,19.60
2012,07,12,08,50,19.70
2012,07,12,08,51,19.70
2012,07,12,08,52,19.60
2012,07,12,08,53,19.70
2012,07,12,08,54,19.70
2012,07,12,08,55,19.70
2012,07,12,08,56,19.70
2012,07,12,08,57,19.80
2012,07,12,08,58,19.80
2012,07,12,08,59,19.80
2012,07,12,09,00,19.80
2012,07,12,09,01,19.80
2012,07,12,09,02,19.70
2012,07,12,09,03,19.60
2012,07,12,09,04,19.50
2012,07,12,09,05,19.40
2012,07,12,09,06,19.30
2012,07,12,09,07,19.30
2012,07,12,09,08,19.30
2012,07,12,09,09,19.40
2012,07,12,09,10,19.50
2012,07,12,09,11,19.50
2012,07,12,09,12,19.60
2012,07,12,09,13,19.60
2012,07,12,09,14,19.60
2012,07,12,09,15,19.60
2012,07,12,09,16,19.60
2012,07,12,09,17,19.60
2012,07,12,09,18,19.60
2012,07,12,09,19,19.60
2012,07,12,09,20,19.60
2012,07,12,09,21,19.60
2012,07,12,09,22,19.60
2012,07,12,09,23,19.60
2012,07,12,09,24,19.60
2012,07,12,09,25,19.60
2012,07,12,09,26,19.60
2012,07,12,09,27,19.60
2012,07,12,09,28,19.70
2012,07,12,09,29,19.70
2012,07,12,09,30,19.70
2012,07,12,09,31,19.80
2012,07,12,09,32,19.80
2012,07,12,09,33,19.90
2012,07,12,09,34,20.00
2012,07,12,09,35,20.10
2012,07,12,09,36,20.20
2012,07,12,09,37,20.30
2012,07,12,09,38,20.30
2012,07,12,09,39,20.40
2012,07,12,09,40,20.50
2012,07,12,09,41,20.60
2012,07,12,09,42,20.70
2012,07,12,09,43,20.80
2012,07,12,09,44,20.90
2012,07,12,09,45,21.00
2012,07,12,09,46,21.10
2012,07,12,09,47,21.10
2012,07,12,09,48,21.10
2012,07,12,09,49,21.10
2012,07,12,09,50,21.20
2012,07,12,09,51,21.20
2012,07,12,09,52,21.30
2012,07,12,09,53,21.30
2012,07,12,09,54,21.30
2012,07,12,09,55,21.30
2012,07,12,09,56,21.40
2012,07,12,09,57,21.50
2012,07,12,09,58,21.60
2012,07,12,09,59,21.60
2012,07,12,10,00,21.50
2012,07,12,10,01,21.50
2012,07,12,10,02,21.50
2012,07,12,10,03,21.40
2012,07,12,10,04,21.40
2012,07,12,10,05,21.40
2012,07,12,10,06,21.40
2012,07,12,10,07,21.50
2012,07,12,10,08,21.50
2012,07,12,10,09,21.50
2012,07,12,10,10,21.50
2012,07,12,10,11,21.40
2012,07,12,10,12,21.40
2012,07,12,10,13,21.30
2012,07,12,10,14,21.30
2012,07,12,10,15,21.30
2012,07,12,10,16,21.30
2012,07,12,10,17,21.30
2012,07,12,10,18,21.30
2012,07,12,10,19,21.20
2012,07,12,10,20,21.20
2012,07,12,10,21,21.10
2012,07,12,10,22,21.10
2012,07,12,10,23,21.00
2012,07,12,10,24,20.90
2012,07,12,10,25,20.90
2012,07,12,10,26,20.90
2012,07,12,10,27,20.90
2012,07,12,10,28,21.00
2012,07,12,10,29,21.10
2012,07,12,10,30,21.30
2012,07,12,10,31,21.40
2012,07,12,10,32,21.40
2012,07,12,10,33,21.40
2012,07,12,10,34,21.20
2012,07,12,10,35,21.10
2012,07,12,10,36,21.10
2012,07,12,10,37,21.10
2012,07,12,10,38,21.20
2012,07,12,10,39,21.30
2012,07,12,10,40,21.40
2012,07,12,10,41,21.50
2012,07,12,10,42,21.60
2012,07,12,10,43,21.70
2012,07,12,10,44,21.70
2012,07,12,10,45,21.60
2012,07,12,10,46,21.50
2012,07,12,10,47,21.40
2012,07,12,10,48,21.40
2012,07,12,10,49,21.50
2012,07,12,10,50,21.60
2012,07,12,10,51,21.70
2012,07,12,10,52,21.80
2012,07,12,10,53,21.80
2012,07,12,10,54,21.70
2012,07,12,10,55,21.50
2012,07,12,10,56,21.30
2012,07,12,10,57,21.20
2012,07,12,10,58,21.20
2012,07,12,10,59,21.20
2012,07,12,11,00,21.20
2012,07,12,11,01,21.20
2012,07,12,11,02,21.20
2012,07,12,11,03,21.10
2012,07,12,11,04,21.00
2012,07,12,11,05,21.00
2012,07,12,11,06,21.00
2012,07,12,11,07,21.10
2012,07,12,11,08,21.20
2012,07,12,11,09,21.30
2012,07,12,11,10,21.30
2012,07,12,11,11,21.30
2012,07,12,11,12,21.30
2012,07,12,11,13,21.30
2012,07,12,11,14,21.40
2012,07,12,11,15,21.40
2012,07,12,11,16,21.50
2012,07,12,11,17,21.50
2012,07,12,11,18,21.60
2012,07,12,11,19,21.60
2012,07,12,11,20,21.70
2012,07,12,11,21,21.70
2012,07,12,11,22,21.70
2012,07,12,11,23,21.70
2012,07,12,11,24,21.70
2012,07,12,11,25,21.70
2012,07,12,11,26,21.80
2012,07,12,11,27,21.90
2012,07,12,11,28,22.00
2012,07,12,11,29,22.00
2012,07,12,11,30,22.20
2012,07,12,11,31,22.30
2012,07,12,11,32,22.40
2012,07,12,11,33,22.40
2012,07,12,11,34,22.30
2012,07,12,11,35,22.20
2012,07,12,11,36,22.10
2012,07,12,11,37,22.10
2012,07,12,11,38,22.10
2012,07,12,11,39,22.10
2012,07,12,11,40,22.10
2012,07,12,11,41,22.20
2012,07,12,11,42,22.30
2012,07,12,11,43,22.40
2012,07,12,11,44,22.40
2012,07,12,11,45,22.40
2012,07,12,11,46,22.40
2012,07,12,11,47,22.40
2012,07,12,11,48,22.30
2012,07,12,11,49,22.30
2012,07,12,11,50,22.30
2012,07,12,11,51,22.30
2012,07,12,11,52,22.30
2012,07,12,11,53,22.30
2012,07,12,11,54,22.30
2012,07,12,11,55,22.30
2012,07,12,11,56,22.30
2012,07,12,11,57,22.40
2012,07,12,11,58,22.50
2012,07,12,11,59,22.60
2012,07,12,12,00,22.60
2012,07,12,12,01,22.70
2012,07,12,12,02,22.80
2012,07,12,12,03,22.80
2012,07,12,12,04,22.80
2012,07,12,12,05,22.90
2012,07,12,12,06,22.90
2012,07,12,12,07,22.80
2012,07,12,12,08,22.70
2012,07,12,12,09,22.70
2012,07,12,12,10,22.70
2012,07,12,12,11,22.70
2012,07,12,12,12,22.80
2012,07,12,12,13,22.80
2012,07,12,12,14,22.70
2012,07,12,12,15,22.50
2012,07,12,12,16,22.40
2012,07,12,12,17,22.40
2012,07,12,12,18,22.40
2012,07,12,12,19,22.40
2012,07,12,12,20,22.30
2012,07,12,12,21,22.30
2012,07,12,12,22,22.40
2012,07,12,12,23,22.50
2012,07,12,12,24,22.50
2012,07,12,12,25,22.50
2012,07,12,12,26,22.50
2012,07,12,12,27,22.50
2012,07,12,12,28,22.40
2012,07,12,12,29,22.30
2012,07,12,12,30,22.20
2012,07,12,12,31,22.00
2012,07,12,12,32,21.90
2012,07,12,12,33,21.90
2012,07,12,12,34,21.90
2012,07,12,12,35,21.90
2012,07,12,12,36,21.80
2012,07,12,12,37,21.90
2012,07,12,12,38,21.90
2012,07,12,12,39,22.00
2012,07,12,12,40,22.10
2012,07,12,12,41,22.10
2012,07,12,12,42,22.20
2012,07,12,12,43,22.20
2012,07,12,12,44,22.30
2012,07,12,12,45,22.30
2012,07,12,12,46,22.40
2012,07,12,12,47,22.40
2012,07,12,12,48,22.40
2012,07,12,12,49,22.40
2012,07,12,12,50,22.40
2012,07,12,12,51,22.40
2012,07,12,12,52,22.40
2012,07,12,12,53,22.50
2012,07,12,12,54,22.60
2012,07,12,12,55,22.70
2012,07,12,12,56,22.70
2012,07,12,12,57,22.70
2012,07,12,12,58,22.70
2012,07,12,12,59,22.80
2012,07,12,13,00,22.80
2012,07,12,13,01,22.70
2012,07,12,13,02,22.60
2012,07,12,13,03,22.50
2012,07,12,13,04,22.40
2012,07,12,13,05,22.40
2012,07,12,13,06,22.40
2012,07,12,13,07,22.40
2012,07,12,13,08,22.40
2012,07,12,13,09,22.30
2012,07,12,13,10,22.30
2012,07,12,13,11,22.30
2012,07,12,13,12,22.30
2012,07,12,13,13,22.30
2012,07,12,13,14,22.30
2012,07,12,13,15,22.30
2012,07,12,13,16,22.30
2012,07,12,13,17,22.30
2012,07,12,13,18,22.20
2012,07,12,13,19,22.20
2012,07,12,13,20,22.40
2012,07,12,13,21,22.40
2012,07,12,13,22,22.40
2012,07,12,13,23,22.40
2012,07,12,13,24,22.40
2012,07,12,13,25,22.30
2012,07,12,13,26,22.20
2012,07,12,13,27,22.10
2012,07,12,13,28,22.10
2012,07,12,13,29,22.10
2012,07,12,13,30,22.10
2012,07,12,13,31,22.20
2012,07,12,13,32,22.40
2012,07,12,13,33,22.50
2012,07,12,13,34,22.50
2012,07,12,13,35,22.60
2012,07,12,13,36,22.60
2012,07,12,13,37,22.60
2012,07,12,13,38,22.60
2012,07,12,13,39,22.60
2012,07,12,13,40,22.60
2012,07,12,13,41,22.60
2012,07,12,13,42,22.60
2012,07,12,13,43,22.50
2012,07,12,13,44,22.50
2012,07,12,13,45,22.50
2012,07,12,13,46,22.60
2012,07,12,13,47,22.70
2012,07,12,13,48,22.70
2012,07,12,13,49,22.70
2012,07,12,13,50,22.80
2012,07,12,13,51,22.80
2012,07,12,13,52,22.80
2012,07,12,13,53,22.80
2012,07,12,13,54,22.70
2012,07,12,13,55,22.60
2012,07,12,13,56,22.60
2012,07,12,13,57,22.50
2012,07,12,13,58,22.40
2012,07,12,13,59,22.30
2012,07,12,14,00,22.30
2012,07,12,14,01,22.30
2012,07,12,14,02,22.20
2012,07,12,14,03,22.20
2012,07,12,14,04,22.20
2012,07,12,14,05,22.10
2012,07,12,14,06,22.00
2012,07,12,14,07,22.00
2012,07,12,14,08,22.00
2012,07,12,14,09,22.00
2012,07,12,14,10,21.90
2012,07,12,14,11,22.00
2012,07,12,14,12,22.00
2012,07,12,14,13,22.10
2012,07,12,14,14,22.10
2012,07,12,14,15,22.30
2012,07,12,14,16,22.40
2012,07,12,14,17,22.50
2012,07,12,14,18,22.60
2012,07,12,14,19,22.70
2012,07,12,14,20,22.70
2012,07,12,14,21,22.80
2012,07,12,14,22,22.80
2012,07,12,14,23,22.80
2012,07,12,14,24,22.70
2012,07,12,14,25,22.50
2012,07,12,14,26,22.30
2012,07,12,14,27,22.20
2012,07,12,14,28,22.10
2012,07,12,14,29,22.10
2012,07,12,14,30,22.20
2012,07,12,14,31,22.20
2012,07,12,14,32,22.20
2012,07,12,14,33,22.20
2012,07,12,14,34,22.20
2012,07,12,14,35,22.30
2012,07,12,14,36,22.30
2012,07,12,14,37,22.30
2012,07,12,14,38,22.30
2012,07,12,14,39,22.40
2012,07,12,14,40,22.40
2012,07,12,14,41,22.40
2012,07,12,14,42,22.40
2012,07,12,14,43,22.40
2012,07,12,14,44,22.40
2012,07,12,14,45,22.40
2012,07,12,14,46,22.40
2012,07,12,14,47,22.50
2012,07,12,14,48,22.60
2012,07,12,14,49,22.70
2012,07,12,14,50,22.80
2012,07,12,14,51,22.80
2012,07,12,14,52,22.80
2012,07,12,14,53,22.80
2012,07,12,14,54,22.70
2012,07,12,14,55,22.60
2012,07,12,14,56,22.40
2012,07,12,14,57,22.40
2012,07,12,14,58,22.40
2012,07,12,14,59,22.40
2012,07,12,15,00,22.50
2012,07,12,15,01,22.50
2012,07,12,15,02,22.60
2012,07,12,15,03,22.60
2012,07,12,15,04,22.60
2012,07,12,15,05,22.60
2012,07,12,15,06,22.70
2012,07,12,15,07,22.80
2012,07,12,15,08,22.80
2012,07,12,15,09,22.90
2012,07,12,15,10,23.00
2012,07,12,15,11,23.00
2012,07,12,15,12,23.10
2012,07,12,15,13,23.10
2012,07,12,15,14,23.20
2012,07,12,15,15,23.20
2012,07,12,15,16,23.30
2012,07,12,15,17,23.30
2012,07,12,15,18,23.30
2012,07,12,15,19,23.40
2012,07,12,15,20,23.40
2012,07,12,15,21,23.50
2012,07,12,15,22,23.60
2012,07,12,15,23,23.60
2012,07,12,15,24,23.50
2012,07,12,15,25,23.40
2012,07,12,15,26,23.40
2012,07,12,15,27,23.40
2012,07,12,15,28,23.40
2012,07,12,15,29,23.40
2012,07,12,15,30,23.40
2012,07,12,15,31,23.30
2012,07,12,15,32,23.30
2012,07,12,15,33,23.30
2012,07,12,15,34,23.30
2012,07,12,15,35,23.30
2012,07,12,15,36,23.20
2012,07,12,15,37,23.10
2012,07,12,15,38,23.10
2012,07,12,15,39,23.10
2012,07,12,15,40,23.10
2012,07,12,15,41,23.20
2012,07,12,15,42,23.30
2012,07,12,15,43,23.30
2012,07,12,15,44,23.40
2012,07,12,15,45,23.50
2012,07,12,16,16,23.50
2012,07,12,16,17,23.50
2012,07,12,16,18,23.40
2012,07,12,16,19,23.30
2012,07,12,16,20,23.30
2012,07,12,16,21,23.40
2012,07,12,16,41,23.50
2012,07,12,16,42,23.60
2012,07,12,16,53,23.50
2012,07,12,16,54,23.40
2012,07,12,16,55,23.30
2012,07,12,16,56,23.30
2012,07,12,16,57,23.20
2012,07,12,16,58,23.20
2012,07,12,16,59,23.10
2012,07,12,17,00,23.10
2012,07,12,17,01,23.00
2012,07,12,17,02,22.90
2012,07,12,17,03,22.70
2012,07,12,17,04,22.70
2012,07,12,17,05,22.70
2012,07,12,17,06,22.70
2012,07,12,17,07,22.70
2012,07,12,17,08,22.70
2012,07,12,17,09,22.80
2012,07,12,17,10,22.90
2012,07,12,17,11,22.90
2012,07,12,17,12,23.00
2012,07,12,17,13,23.10
2012,07,12,17,14,23.20
2012,07,12,17,15,23.20
2012,07,12,17,16,23.20
2012,07,12,17,17,23.20
2012,07,12,17,18,23.30
2012,07,12,17,19,23.40
2012,07,12,17,20,23.50
2012,07,12,17,21,23.60
2012,07,12,17,27,23.60
2012,07,12,17,28,23.50
2012,07,12,17,29,23.50
2012,07,12,17,30,23.50
2012,07,12,17,31,23.60
2012,07,12,17,32,23.60
2012,07,12,17,36,23.60
2012,07,12,17,37,23.60
2012,07,12,17,38,23.60
2012,07,12,17,39,23.60
2012,07,12,17,40,23.50
2012,07,12,17,41,23.50
2012,07,12,17,42,23.50
2012,07,12,17,43,23.40
2012,07,12,17,44,23.40
2012,07,12,17,45,23.40
2012,07,12,17,46,23.30
2012,07,12,17,47,23.30
2012,07,12,17,48,23.20
2012,07,12,17,49,23.20
2012,07,12,17,50,23.10
2012,07,12,17,51,22.90
2012,07,12,17,52,22.80
2012,07,12,17,53,22.70
2012,07,12,17,54,22.60
2012,07,12,17,55,22.60
2012,07,12,17,56,22.60
2012,07,12,17,57,22.70
2012,07,12,17,58,22.70
2012,07,12,17,59,22.70
2012,07,12,18,00,22.70
2012,07,12,18,01,22.60
2012,07,12,18,02,22.60
2012,07,12,18,03,22.60
2012,07,12,18,04,22.50
2012,07,12,18,05,22.50
2012,07,12,18,06,22.60
2012,07,12,18,07,22.60
2012,07,12,18,08,22.70
2012,07,12,18,09,22.80
2012,07,12,18,10,22.90
2012,07,12,18,11,23.00
2012,07,12,18,12,23.10
2012,07,12,18,13,23.20
2012,07,12,18,14,23.20
2012,07,12,18,15,23.30
2012,07,12,18,16,23.30
2012,07,12,18,17,23.40
2012,07,12,18,18,23.40
2012,07,12,18,19,23.40
2012,07,12,18,20,23.50
2012,07,12,18,21,23.50
2012,07,12,18,22,23.50
2012,07,12,18,23,23.60
2012,07,12,18,24,23.60
2012,07,12,18,25,23.50
2012,07,12,18,26,23.60